Simultaneous Nadir Overpasses (SNOs) Predictions

Prediction of SNOs between NOAA-20 and NOAA-19 Satellite Orbit:

Table of predicted SNOs for the next 14.0 days since TLE Epoch: 11/21/2020
Index Date (NOAA-20) Time (NOAA-20) Lat,Lon (NOAA-20) SZA (NOAA-20 ) Date (NOAA-19) Time (NOAA-19) Lat,Lon (NOAA-19) SZA (NOAA-19 ) Distance(km) Time Diff (sec)
1 11/27/2020 20:38:53 -78.67, 21.73 79.03 11/27/2020 20:37:44 -78.67, 19.30 78.80 53.13 69
2 11/27/2020 21:29:43 78.84,-172.06 101.23 11/27/2020 21:28:33 78.87,-171.97 101.27 3.55 70
3 11/27/2020 22:20:28 -78.86, -4.85 78.75 11/27/2020 22:19:39 -78.86, -4.84 78.74 0.28 49
4 11/27/2020 23:11:13 78.85, 162.55 101.24 11/27/2020 23:10:34 78.85, 162.40 101.28 3.33 39
5 11/28/2020 00:01:58 -78.86, -30.24 78.73 11/28/2020 00:01:39 -78.87, -30.22 78.72 1.42 19
6 11/28/2020 00:52:44 78.88, 136.91 101.31 11/28/2020 00:52:34 78.87, 137.02 101.29 2.94 10
7 11/28/2020 01:43:28 -78.86, -55.63 78.72 11/28/2020 01:43:39 -78.89, -55.59 78.70 2.89 11
8 11/28/2020 02:34:14 78.89, 111.52 101.33 11/28/2020 02:34:34 78.88, 111.65 101.31 2.70 20
9 11/28/2020 03:24:59 -78.90, -81.27 78.65 11/28/2020 03:25:40 -78.87, -81.23 78.69 3.62 41
10 11/28/2020 04:15:44 78.89, 86.13 101.35 11/28/2020 04:16:34 78.90, 86.27 101.33 3.26 50
11 11/28/2020 05:06:29 -78.91,-106.66 78.63 11/28/2020 05:07:40 -78.89,-106.61 78.68 2.38 71
